Canon City Fremont County, CO

1:27 PM MDT on July 24, 2017 (GMT -0600)
Canon City Fremont County

Weather History for K1V6 - January, 2014

Change the Weather History Date:

Friday, January 24, 2014

  Actual Average (KFCS) Record (KFCS)
Temperature  
Mean Temperature 43 °F -  
Max Temperature 60 °F 42 °F 68 °F (2013)
Min Temperature 26 °F 20 °F 6 °F (2002)
Degree Days  
Heating Degree Days 22    
Moisture  
Dew Point 13 °F    
Average Humidity 33    
Maximum Humidity 59    
Minimum Humidity 11    
Precipitation  
Precipitation 0.00 in - - ()
Sea Level Pressure  
Sea Level Pressure 30.22 in    
Wind  
Wind Speed 18 mph (West)    
Max Wind Speed 30 mph    
Max Gust Speed 34 mph    
Visibility 10 miles    
Events      
Averages and records for this station are not official NWS values.
T = Trace of Precipitation, MM = Missing Value Source: NWS Daily Summary

Daily Weather History Graph

Daily Weather History Graph

Search for Another Location

Airport or City:

Trip Planner

Search our weather history database for the weather conditions in past years. The results will help you decide how hot, cold, wet, or windy it might be!

Date:

Astronomy

Jan. 24, 2014 Rise Set
Actual Time 7:11 AM MST 5:13 PM MST
Civil Twilight 6:43 AM MST 5:42 PM MST
Nautical Twilight 6:11 AM MST 6:14 PM MST
Astronomical Twilight 5:39 AM MST 6:45 PM MST
Moon 12:42 AM MST 11:33 AM MST
Length of Visible Light 10h 58m
Length of Day
10h 02m
Last Quarter, 44% of the Moon is Illuminated
Jan 24
Last Quarter
Jan 30
New
Feb 6
First Quarter
Feb 14
Full
Feb 22
Last Quarter

Hourly Weather History & Observations

Time (MST) Temp. Windchill Dew Point Humidity Pressure Visibility Wind Dir Wind Speed Gust Speed Precip Events Conditions
12:15 AM 28.4 °F 14.7 °F 15.8 °F 59% 30.32 in 10.0 mi West 21.9 mph 27.6 mph N/A   Clear
12:35 AM 28.4 °F 13.5 °F 15.8 °F 59% 30.32 in 10.0 mi WNW 26.5 mph 33.4 mph N/A   Clear
12:55 AM 28.4 °F 14.1 °F 15.8 °F 59% 30.31 in 10.0 mi WNW 24.2 mph - N/A   Clear
1:15 AM 26.6 °F 12.4 °F 14.0 °F 59% 30.31 in 10.0 mi WNW 21.9 mph - N/A   Clear
1:35 AM 26.6 °F 12.7 °F 14.0 °F 59% 30.30 in 10.0 mi WNW 20.7 mph - N/A   Clear
1:55 AM 28.4 °F 15.8 °F 14.0 °F 55% 30.31 in 10.0 mi WNW 18.4 mph - N/A   Clear
2:15 AM 28.4 °F 15.8 °F 14.0 °F 55% 30.30 in 10.0 mi West 18.4 mph - N/A   Clear
2:35 AM 28.4 °F 14.7 °F 14.0 °F 55% 30.30 in 10.0 mi West 21.9 mph 26.5 mph N/A   Clear
2:55 AM 28.4 °F 14.4 °F 14.0 °F 55% 30.30 in 10.0 mi WNW 23.0 mph 27.6 mph N/A   Clear
3:15 AM 28.4 °F 15.8 °F 14.0 °F 55% 30.29 in 10.0 mi WNW 18.4 mph - N/A   Clear
3:35 AM 28.4 °F 15.1 °F 14.0 °F 55% 30.28 in 10.0 mi West 20.7 mph 25.3 mph N/A   Clear
3:55 AM 26.6 °F 17.5 °F 12.2 °F 55% 30.29 in 10.0 mi WNW 9.2 mph - N/A   Clear
4:15 AM 28.4 °F 18.0 °F 12.2 °F 51% 30.29 in 10.0 mi West 12.7 mph - N/A   Clear
4:35 AM 28.4 °F 15.4 °F 12.2 °F 51% 30.28 in 10.0 mi West 19.6 mph - N/A   Clear
4:55 AM 28.4 °F 14.4 °F 12.2 °F 51% 30.27 in 10.0 mi West 23.0 mph - N/A   Clear
5:15 AM 30.2 °F 18.1 °F 12.2 °F 47% 30.26 in 10.0 mi West 18.4 mph - N/A   Clear
5:35 AM 32.0 °F 17.6 °F 10.4 °F 41% 30.26 in 10.0 mi West 29.9 mph 34.5 mph N/A   Clear
5:55 AM 32.0 °F 18.4 °F 10.4 °F 41% 30.27 in 10.0 mi West 26.5 mph - N/A   Clear
6:15 AM 30.2 °F 16.8 °F 10.4 °F 44% 30.27 in 10.0 mi West 23.0 mph 27.6 mph N/A   Clear
6:25 AM 30.2 °F 16.5 °F 10.4 °F 44% 30.27 in 10.0 mi West 24.2 mph 28.8 mph N/A   Clear
10:35 AM 42.8 °F 33.5 °F 14.0 °F 31% 30.28 in 10.0 mi West 23.0 mph 27.6 mph N/A   Clear
10:55 AM 44.6 °F 35.7 °F 14.0 °F 29% 30.27 in 10.0 mi West 24.2 mph 31.1 mph N/A   Clear
11:15 AM 48.2 °F - 14.0 °F 25% 30.27 in 10.0 mi West 20.7 mph - N/A   Clear
11:35 AM 50.0 °F - 14.0 °F 24% 30.25 in 10.0 mi West 18.4 mph - N/A   Clear
11:55 AM 51.8 °F - 14.0 °F 22% 30.24 in 10.0 mi West 17.3 mph - N/A   Clear
12:15 PM 53.6 °F - 10.4 °F 18% 30.23 in 10.0 mi West 12.7 mph 19.6 mph N/A   Clear
12:35 PM 53.6 °F - 8.6 °F 16% 30.21 in 10.0 mi West 13.8 mph 18.4 mph N/A   Clear
12:55 PM 55.4 °F - 10.4 °F 17% 30.20 in 10.0 mi WSW 10.4 mph 18.4 mph N/A   Clear
1:15 PM 57.2 °F - 8.6 °F 14% 30.18 in 10.0 mi West 12.7 mph 18.4 mph N/A   Clear
1:35 PM 59.0 °F - 8.6 °F 14% 30.16 in 10.0 mi West 13.8 mph 18.4 mph N/A   Clear
1:55 PM 60.8 °F - 8.6 °F 13% 30.16 in 10.0 mi WSW 12.7 mph 17.3 mph N/A   Clear
2:15 PM 60.8 °F - 5.0 °F 11% 30.14 in 10.0 mi West 13.8 mph 18.4 mph N/A   Clear
2:35 PM 60.8 °F - 8.6 °F 13% 30.14 in 10.0 mi West 13.8 mph 17.3 mph N/A   Clear
2:55 PM 60.8 °F - 8.6 °F 13% 30.13 in 10.0 mi West 10.4 mph - N/A   Clear
3:15 PM 60.8 °F - 8.6 °F 13% 30.13 in 10.0 mi West 9.2 mph - N/A   Clear
3:35 PM 60.8 °F - 10.4 °F 14% 30.13 in 10.0 mi WSW 8.1 mph - N/A   Clear
3:55 PM 60.8 °F - 10.4 °F 14% 30.13 in 10.0 mi WSW 9.2 mph - N/A   Clear
4:15 PM 59.0 °F - 10.4 °F 15% 30.14 in 10.0 mi West 9.2 mph - N/A   Clear
4:35 PM 57.2 °F - 12.2 °F 17% 30.14 in 10.0 mi West 15.0 mph - N/A   Clear
4:55 PM 55.4 °F - 14.0 °F 20% 30.14 in 10.0 mi West 10.4 mph - N/A   Clear
5:15 PM 51.8 °F - 15.8 °F 24% 30.15 in 10.0 mi West 11.5 mph - N/A   Clear
5:35 PM 50.0 °F - 17.6 °F 28% 30.15 in 10.0 mi WNW 15.0 mph - N/A   Clear
5:55 PM 50.0 °F - 17.6 °F 28% 30.16 in 10.0 mi NW 16.1 mph - N/A   Clear
6:15 PM 50.0 °F - 15.8 °F 26% 30.17 in 10.0 mi WNW 13.8 mph - N/A   Clear
6:35 PM 46.4 °F 40.7 °F 17.6 °F 32% 30.17 in 10.0 mi West 12.7 mph - N/A   Clear
6:55 PM 46.4 °F 40.1 °F 17.6 °F 32% 30.17 in 10.0 mi West 15.0 mph - N/A   Clear
7:15 PM 44.6 °F 39.2 °F 17.6 °F 34% 30.18 in 10.0 mi West 10.4 mph - N/A   Clear
7:35 PM 46.4 °F 40.1 °F 17.6 °F 32% 30.18 in 10.0 mi West 15.0 mph 20.7 mph N/A   Clear
7:55 PM 46.4 °F 42.4 °F 17.6 °F 32% 30.19 in 10.0 mi West 8.1 mph - N/A   Clear
8:15 PM 44.6 °F 38.4 °F 17.6 °F 34% 30.19 in 10.0 mi West 12.7 mph - N/A   Clear
8:35 PM 44.6 °F 37.4 °F 15.8 °F 31% 30.19 in 10.0 mi WNW 16.1 mph - N/A   Clear
8:55 PM 46.4 °F 39.0 °F 14.0 °F 27% 30.20 in 10.0 mi WNW 19.6 mph - N/A   Clear
9:15 PM 44.6 °F 37.2 °F 14.0 °F 29% 30.20 in 10.0 mi WNW 17.3 mph - N/A   Clear
9:35 PM 44.6 °F 38.1 °F 14.0 °F 29% 30.21 in 10.0 mi WNW 13.8 mph - N/A   Clear
9:55 PM 44.6 °F 37.8 °F 14.0 °F 29% 30.21 in 10.0 mi West 15.0 mph - N/A   Clear
10:15 PM 44.6 °F 43.1 °F 14.0 °F 29% 30.21 in 10.0 mi West 3.5 mph - N/A   Clear
10:35 PM 44.6 °F 36.9 °F 14.0 °F 29% 30.22 in 10.0 mi West 18.4 mph - N/A   Clear
10:55 PM 42.8 °F 37.0 °F 12.2 °F 29% 30.23 in 10.0 mi WNW 10.4 mph - N/A   Clear
11:15 PM 42.8 °F 35.8 °F 12.2 °F 29% 30.24 in 10.0 mi WNW 13.8 mph - N/A   Clear
11:35 PM 44.6 °F 38.8 °F 10.4 °F 25% 30.23 in 10.0 mi West 11.5 mph 23.0 mph N/A   Clear
11:55 PM 42.8 °F 35.8 °F 10.4 °F 27% 30.22 in 10.0 mi West 13.8 mph - N/A   Clear